| time (UTC) | temp C | wind direction | speed KPH | gust KPH | rain 1hr cm | rain 24hr cm | rain mn cm | humidity % | barometer mb |
| 20260504004510 | 21 | 253 | 11.3 | 12.9 | 0.00 | 0.00 | 0.00 | 35 | 1000.9 |
| 20260504004007 | 21 | 279 | 17.7 | 22.5 | 0.00 | 0.00 | 0.00 | 34 | 1001.0 |
| 20260504003503 | 21 | 265 | 11.3 | 14.5 | 0.00 | 0.00 | 0.00 | 34 | 1001.1 |
| 20260504003000 | 22 | 209 | 11.3 | 17.7 | 0.00 | 0.00 | 0.00 | 33 | 1001.3 |
| 20260504002457 | 22 | 264 | 12.9 | 16.1 | 0.00 | 0.00 | 0.00 | 32 | 1001.7 |
| 20260504001954 | 22 | 258 | 11.3 | 14.5 | 0.00 | 0.00 | 0.00 | 32 | 1001.6 |
| 20260504001452 | 22 | 248 | 19.3 | 24.1 | 0.00 | 0.00 | 0.00 | 31 | 1001.9 |
| 20260504000948 | 22 | 261 | 12.9 | 16.1 | 0.00 | 0.00 | 0.00 | 33 | 1001.9 |
| 20260504000445 | 22 | 253 | 9.7 | 11.3 | 0.00 | 0.00 | 0.00 | 33 | 1001.7 |
| 20260503235943 | 22 | 267 | 11.3 | 14.5 | 0.00 | 0.00 | 0.00 | 32 | 1002.1 |
| 20260503235440 | 21 | 264 | 8.0 | 11.3 | 0.00 | 0.00 | 0.00 | 33 | 1002.2 |
| 20260503234937 | 21 | 248 | 8.0 | 9.7 | 0.00 | 0.00 | 0.00 | 34 | 1002.2 |
| 20260503234435 | 21 | 266 | 12.9 | 20.9 | 0.00 | 0.00 | 0.00 | 33 | 1002.3 |
| 20260503233933 | 22 | 235 | 11.3 | 14.5 | 0.00 | 0.00 | 0.00 | 32 | 1002.5 |
| 20260503233429 | 22 | 212 | 14.5 | 16.1 | 0.00 | 0.00 | 0.00 | 31 | 1002.7 |
| 20260503232926 | 22 | 278 | 17.7 | 22.5 | 0.00 | 0.00 | 0.00 | 32 | 1002.6 |
| 20260503232422 | 21 | 269 | 12.9 | 14.5 | 0.00 | 0.00 | 0.00 | 31 | 1002.7 |
| 20260503231920 | 21 | 248 | 16.1 | 20.9 | 0.00 | 0.00 | 0.00 | 33 | 1002.8 |
| 20260503231418 | 21 | 276 | 9.7 | 14.5 | 0.00 | 0.00 | 0.00 | 33 | 1003.0 |
| 20260503230914 | 21 | 284 | 14.5 | 17.7 | 0.00 | 0.00 | 0.00 | 32 | 1002.8 |
| 20260503230410 | 22 | 250 | 14.5 | 17.7 | 0.00 | 0.00 | 0.00 | 31 | 1003.1 |
| 20260503225908 | 22 | 283 | 17.7 | 22.5 | 0.00 | 0.00 | 0.00 | 31 | 1003.0 |
| 20260503225404 | 22 | 255 | 19.3 | 24.1 | 0.00 | 0.00 | 0.00 | 30 | 1002.9 |
| 20260503224900 | 23 | 254 | 12.9 | 17.7 | 0.00 | 0.00 | 0.00 | 32 | 1003.1 |
| 20260503224357 | 23 | 254 | 16.1 | 17.7 | 0.00 | 0.00 | 0.00 | 29 | 1003.2 |
| 20260503223855 | 23 | 281 | 17.7 | 20.9 | 0.00 | 0.00 | 0.00 | 29 | 1003.3 |
| 20260503223353 | 22 | 288 | 11.3 | 12.9 | 0.00 | 0.00 | 0.00 | 31 | 1003.4 |
| 20260503222848 | 23 | 290 | 20.9 | 25.7 | 0.00 | 0.00 | 0.00 | 28 | 1003.5 |
| 20260503222347 | 23 | 219 | 12.9 | 16.1 | 0.00 | 0.00 | 0.00 | 29 | 1003.5 |
| 20260503221845 | 23 | 237 | 17.7 | 32.2 | 0.00 | 0.00 | 0.00 | 29 | 1003.8 |
| 20260503221343 | 23 | 239 | 16.1 | 22.5 | 0.00 | 0.00 | 0.00 | 30 | 1003.8 |
| 20260503220838 | 22 | 291 | 19.3 | 22.5 | 0.00 | 0.00 | 0.00 | 30 | 1003.8 |
| 20260503220336 | 23 | 252 | 16.1 | 20.9 | 0.00 | 0.00 | 0.00 | 30 | 1003.9 |
| 20260503215833 | 22 | 242 | 22.5 | 27.4 | 0.00 | 0.00 | 0.00 | 29 | 1003.9 |
| 20260503215330 | 23 | 275 | 14.5 | 17.7 | 0.00 | 0.00 | 0.00 | 32 | 1003.8 |
| 20260503214827 | 23 | 217 | 24.1 | 33.8 | 0.00 | 0.00 | 0.00 | 29 | 1004.1 |
| 20260503214325 | 23 | 234 | 17.7 | 22.5 | 0.00 | 0.00 | 0.00 | 29 | 1004.2 |
| 20260503213822 | 23 | 227 | 17.7 | 25.7 | 0.00 | 0.00 | 0.00 | 32 | 1004.2 |
| 20260503213319 | 23 | 295 | 17.7 | 24.1 | 0.00 | 0.00 | 0.00 | 31 | 1004.5 |
| 20260503212816 | 23 | 240 | 20.9 | 25.7 | 0.00 | 0.00 | 0.00 | 30 | 1004.4 |
| 20260503212314 | 22 | 250 | 16.1 | 20.9 | 0.00 | 0.00 | 0.00 | 31 | 1004.6 |
| 20260503211811 | 22 | 254 | 14.5 | 20.9 | 0.00 | 0.00 | 0.00 | 32 | 1004.8 |
| 20260503211308 | 22 | 274 | 17.7 | 20.9 | 0.00 | 0.00 | 0.00 | 31 | 1004.9 |
| 20260503210808 | 22 | 212 | 19.3 | 24.1 | 0.00 | 0.00 | 0.00 | 31 | 1005.1 |
| 20260503210305 | 23 | 280 | 14.5 | 20.9 | 0.00 | 0.00 | 0.00 | 32 | 1005.3 |
| 20260503205800 | 22 | 245 | 17.7 | 20.9 | 0.00 | 0.00 | 0.00 | 31 | 1005.5 |
| 20260503205257 | 22 | 205 | 17.7 | 24.1 | 0.00 | 0.00 | 0.00 | 32 | 1005.7 |
| 20260503204754 | 22 | 221 | 14.5 | 16.1 | 0.00 | 0.00 | 0.00 | 32 | 1005.9 |
| 20260503204251 | 22 | 276 | 17.7 | 20.9 | 0.00 | 0.00 | 0.00 | 32 | 1005.9 |
| 20260503203749 | 22 | 286 | 20.9 | 25.7 | 0.00 | 0.00 | 0.00 | 32 | 1006.1 |
| 20260503203246 | 22 | 250 | 17.7 | 20.9 | 0.00 | 0.00 | 0.00 | 31 | 1006.2 |
| 20260503202743 | 22 | 297 | 16.1 | 24.1 | 0.00 | 0.00 | 0.00 | 31 | 1006.2 |
| 20260503202241 | 22 | 280 | 17.7 | 25.7 | 0.00 | 0.00 | 0.00 | 32 | 1006.5 |
| 20260503201738 | 22 | 250 | 16.1 | 20.9 | 0.00 | 0.00 | 0.00 | 31 | 1006.5 |
| 20260503201236 | 22 | 270 | 17.7 | 25.7 | 0.00 | 0.00 | 0.00 | 31 | 1006.5 |
| 20260503200732 | 22 | 273 | 24.1 | 32.2 | 0.00 | 0.00 | 0.00 | 29 | 1006.7 |
| 20260503200228 | 22 | 282 | 24.1 | 27.4 | 0.00 | 0.00 | 0.00 | 31 | 1006.7 |
| 20260503195725 | 22 | 280 | 16.1 | 20.9 | 0.00 | 0.00 | 0.00 | 32 | 1006.9 |
| 20260503195222 | 22 | 299 | 11.3 | 12.9 | 0.00 | 0.00 | 0.00 | 32 | 1007.0 |
| 20260503194720 | 22 | 287 | 24.1 | 33.8 | 0.00 | 0.00 | 0.00 | 31 | 1007.2 |
| 20260503194215 | 22 | 285 | 14.5 | 16.1 | 0.00 | 0.00 | 0.00 | 32 | 1007.1 |
| 20260503193712 | 22 | 284 | 17.7 | 24.1 | 0.00 | 0.00 | 0.00 | 33 | 1007.5 |
| 20260503193208 | 21 | 229 | 19.3 | 25.7 | 0.00 | 0.00 | 0.00 | 32 | 1007.2 |
| 20260503192704 | 21 | 211 | 19.3 | 22.5 | 0.00 | 0.00 | 0.00 | 32 | 1007.7 |
| 20260503192159 | 22 | 211 | 14.5 | 17.7 | 0.00 | 0.00 | 0.00 | 34 | 1007.8 |
| 20260503191655 | 21 | 237 | 19.3 | 24.1 | 0.00 | 0.00 | 0.00 | 31 | 1007.7 |
| 20260503191153 | 21 | 235 | 14.5 | 17.7 | 0.00 | 0.00 | 0.00 | 33 | 1007.9 |
| 20260503190650 | 21 | 228 | 22.5 | 27.4 | 0.00 | 0.00 | 0.00 | 33 | 1008.2 |
| 20260503190147 | 21 | 272 | 24.1 | 29.0 | 0.00 | 0.00 | 0.00 | 31 | 1008.4 |
| 20260503185643 | 21 | 269 | 12.9 | 14.5 | 0.00 | 0.00 | 0.00 | 34 | 1008.3 |
| 20260503185139 | 21 | 268 | 11.3 | 12.9 | 0.00 | 0.00 | 0.00 | 35 | 1008.5 |
| 20260503184634 | 21 | 221 | 17.7 | 20.9 | 0.00 | 0.00 | 0.00 | 34 | 1008.6 |
| 20260503184131 | 21 | 303 | 12.9 | 16.1 | 0.00 | 0.00 | 0.00 | 34 | 1008.6 |
| 20260503183627 | 21 | 270 | 17.7 | 24.1 | 0.00 | 0.00 | 0.00 | 34 | 1008.9 |
| 20260503183125 | 20 | 297 | 14.5 | 22.5 | 0.00 | 0.00 | 0.00 | 35 | 1009.3 |
| 20260503182623 | 21 | 293 | 12.9 | 16.1 | 0.00 | 0.00 | 0.00 | 37 | 1009.4 |
| 20260503182121 | 20 | 284 | 11.3 | 12.9 | 0.00 | 0.00 | 0.00 | 34 | 1009.3 |
| 20260503181617 | 20 | 242 | 22.5 | 25.7 | 0.00 | 0.00 | 0.00 | 35 | 1009.7 |
| 20260503181114 | 20 | 216 | 6.4 | 9.7 | 0.00 | 0.00 | 0.00 | 36 | 1009.7 |
| 20260503180611 | 20 | 271 | 8.0 | 11.3 | 0.00 | 0.00 | 0.00 | 37 | 1010.0 |
| 20260503180109 | 20 | 241 | 14.5 | 17.7 | 0.00 | 0.00 | 0.00 | 36 | 1009.9 |
| 20260503175605 | 20 | 226 | 14.5 | 16.1 | 0.00 | 0.00 | 0.00 | 36 | 1010.1 |
| 20260503175103 | 20 | 244 | 12.9 | 16.1 | 0.00 | 0.00 | 0.00 | 37 | 1010.2 |
| 20260503174559 | 19 | 271 | 11.3 | 12.9 | 0.00 | 0.00 | 0.00 | 37 | 1010.3 |
| 20260503174056 | 20 | 304 | 14.5 | 20.9 | 0.00 | 0.00 | 0.00 | 36 | 1010.6 |
| 20260503173551 | 19 | 224 | 19.3 | 25.7 | 0.00 | 0.00 | 0.00 | 37 | 1010.6 |
| 20260503173048 | 19 | 226 | 19.3 | 27.4 | 0.00 | 0.00 | 0.00 | 36 | 1010.7 |
| 20260503172545 | 20 | 273 | 14.5 | 16.1 | 0.00 | 0.00 | 0.00 | 36 | 1010.8 |
| 20260503172042 | 19 | 277 | 12.9 | 17.7 | 0.00 | 0.00 | 0.00 | 37 | 1010.9 |
| 20260503171539 | 18 | 254 | 11.3 | 12.9 | 0.00 | 0.00 | 0.00 | 38 | 1011.1 |
| 20260503171036 | 18 | 253 | 9.7 | 11.3 | 0.00 | 0.00 | 0.00 | 38 | 1011.3 |
| 20260503170532 | 18 | 245 | 14.5 | 16.1 | 0.00 | 0.00 | 0.00 | 38 | 1011.3 |
| 20260503150925 | 13 | 209 | 6.4 | 8.0 | 0.00 | 0.00 | 0.00 | 50 | 1012.9 |
| 20260503150421 | 12 | 221 | 11.3 | 12.9 | 0.00 | 0.00 | 0.00 | 52 | 1012.9 |
| 20260503131314 | 6 | 225 | 1.6 | 3.2 | 0.00 | 0.00 | 0.00 | 65 | 1014.0 |
| 20260503130812 | 6 | 171 | 1.6 | 1.6 | 0.00 | 0.00 | 0.00 | 65 | 1013.9 |
| 20260503130309 | 5 | 144 | 1.6 | 1.6 | 0.00 | 0.00 | 0.00 | 65 | 1013.9 |
| 20260503110703 | 2 | 315 | 1.6 | 1.6 | 0.00 | 0.00 | 0.00 | 72 | 1014.1 |
| 20260503110200 | 2 | 316 | 0.0 | 0.0 | 0.00 | 0.00 | 0.00 | 72 | 1013.7 |
| 20260503100121 | 2 | 175 | 0.0 | 0.0 | 0.00 | 0.00 | 0.00 | 72 | 1014.1 |
| 20260503081458 | 4 | 243 | 0.0 | 0.0 | 0.00 | 0.00 | 0.00 | 67 | 1013.8 |
| 20260503080955 | 5 | 240 | 1.6 | 1.6 | 0.00 | 0.00 | 0.00 | 65 | 1013.9 |
| 20260503080452 | 5 | 289 | 1.6 | 1.6 | 0.00 | 0.00 | 0.00 | 63 | 1013.7 |
| 20260503072928 | 6 | 287 | 4.8 | 4.8 | 0.00 | 0.00 | 0.00 | 61 | 1013.8 |
| 20260503072425 | 6 | 281 | 3.2 | 3.2 | 0.00 | 0.00 | 0.00 | 62 | 1013.7 |
| 20260503071922 | 6 | 292 | 3.2 | 3.2 | 0.00 | 0.00 | 0.00 | 61 | 1014.0 |
| 20260503071419 | 6 | 268 | 3.2 | 3.2 | 0.00 | 0.00 | 0.00 | 61 | 1014.0 |
| 20260503070915 | 6 | 307 | 3.2 | 3.2 | 0.00 | 0.00 | 0.00 | 62 | 1013.9 |
| 20260503070413 | 6 | 281 | 3.2 | 3.2 | 0.00 | 0.00 | 0.00 | 62 | 1013.9 |
| 20260503060339 | 8 | 13 | 8.0 | 9.7 | 0.00 | 0.00 | 0.00 | 61 | 1013.3 |
| 20260503054826 | 9 | 345 | 8.0 | 11.3 | 0.00 | 0.00 | 0.00 | 61 | 1013.6 |
| 20260503054322 | 10 | 4 | 9.7 | 11.3 | 0.00 | 0.00 | 0.00 | 61 | 1013.7 |
| 20260503053820 | 10 | 39 | 6.4 | 8.0 | 0.00 | 0.00 | 0.00 | 61 | 1013.5 |
| 20260503053318 | 10 | 24 | 4.8 | 4.8 | 0.00 | 0.00 | 0.00 | 61 | 1013.4 |
| 20260503052814 | 10 | 5 | 6.4 | 9.7 | 0.00 | 0.00 | 0.00 | 62 | 1013.5 |
| 20260503052311 | 10 | 23 | 8.0 | 8.0 | 0.00 | 0.00 | 0.00 | 62 | 1013.3 |
| 20260503051807 | 10 | 20 | 6.4 | 8.0 | 0.00 | 0.00 | 0.00 | 62 | 1013.5 |
| 20260503051304 | 10 | 31 | 8.0 | 11.3 | 0.00 | 0.00 | 0.00 | 63 | 1013.3 |
| 20260503050801 | 10 | 355 | 4.8 | 4.8 | 0.00 | 0.00 | 0.00 | 63 | 1013.3 |
| 20260503050257 | 10 | 8 | 4.8 | 8.0 | 0.00 | 0.00 | 0.00 | 62 | 1013.3 |
| 20260503045755 | 11 | 337 | 4.8 | 8.0 | 0.00 | 0.00 | 0.00 | 62 | 1013.3 |
| 20260503045253 | 10 | 17 | 8.0 | 11.3 | 0.00 | 0.00 | 0.00 | 62 | 1013.3 |
| 20260503044748 | 10 | 22 | 3.2 | 3.2 | 0.00 | 0.00 | 0.00 | 63 | 1013.1 |
| 20260503044245 | 11 | 44 | 6.4 | 8.0 | 0.00 | 0.00 | 0.00 | 62 | 1013.2 |
| 20260503043743 | 11 | 26 | 6.4 | 8.0 | 0.00 | 0.00 | 0.00 | 61 | 1013.0 |
| 20260503043240 | 11 | 334 | 4.8 | 4.8 | 0.00 | 0.00 | 0.00 | 61 | 1013.0 |
| 20260503042735 | 11 | 27 | 4.8 | 4.8 | 0.00 | 0.00 | 0.00 | 60 | 1012.9 |
| 20260503042232 | 11 | 345 | 6.4 | 9.7 | 0.00 | 0.00 | 0.00 | 60 | 1013.0 |
| 20260503041728 | 11 | 26 | 3.2 | 3.2 | 0.00 | 0.00 | 0.00 | 61 | 1013.0 |
| 20260503041226 | 11 | 51 | 1.6 | 3.2 | 0.00 | 0.00 | 0.00 | 61 | 1012.6 |
| 20260503040723 | 12 | 50 | 3.2 | 3.2 | 0.00 | 0.00 | 0.00 | 60 | 1012.9 |
| 20260503040220 | 12 | 12 | 4.8 | 4.8 | 0.00 | 0.00 | 0.00 | 60 | 1012.7 |
| 20260503035717 | 11 | 333 | 6.4 | 9.7 | 0.00 | 0.00 | 0.00 | 60 | 1012.9 |
| 20260503035215 | 11 | 1 | 4.8 | 8.0 | 0.00 | 0.00 | 0.00 | 61 | 1013.0 |
| 20260503034712 | 11 | 25 | 3.2 | 3.2 | 0.00 | 0.00 | 0.00 | 61 | 1012.7 |
| 20260503034209 | 12 | 346 | 4.8 | 4.8 | 0.00 | 0.00 | 0.00 | 60 | 1012.7 |
| 20260503033706 | 12 | 14 | 6.4 | 8.0 | 0.00 | 0.00 | 0.00 | 59 | 1012.5 |
| 20260503033203 | 12 | 350 | 3.2 | 3.2 | 0.00 | 0.00 | 0.00 | 59 | 1012.7 |
| 20260503032701 | 12 | 298 | 8.0 | 11.3 | 0.00 | 0.00 | 0.00 | 58 | 1012.6 |
| 20260503032200 | 12 | 342 | 6.4 | 8.0 | 0.00 | 0.00 | 0.00 | 57 | 1012.5 |
| 20260503031656 | 12 | 286 | 8.0 | 11.3 | 0.00 | 0.00 | 0.00 | 58 | 1012.6 |
| 20260503031155 | 12 | 323 | 4.8 | 4.8 | 0.00 | 0.00 | 0.00 | 57 | 1012.4 |
| 20260503030650 | 12 | 12 | 8.0 | 11.3 | 0.00 | 0.00 | 0.00 | 57 | 1012.4 |
| 20260503030147 | 13 | 352 | 4.8 | 4.8 | 0.00 | 0.00 | 0.00 | 57 | 1012.3 |
| 20260503025644 | 13 | 312 | 9.7 | 11.3 | 0.00 | 0.00 | 0.00 | 56 | 1012.3 |
| 20260503025142 | 13 | 312 | 8.0 | 11.3 | 0.00 | 0.00 | 0.00 | 55 | 1012.2 |
| 20260503024638 | 13 | 325 | 8.0 | 9.7 | 0.00 | 0.00 | 0.00 | 55 | 1012.4 |
| 20260503024136 | 13 | 311 | 4.8 | 4.8 | 0.00 | 0.00 | 0.00 | 54 | 1012.1 |
| 20260503023632 | 13 | 343 | 8.0 | 9.7 | 0.00 | 0.00 | 0.00 | 54 | 1012.1 |
| 20260503023124 | 13 | 346 | 4.8 | 8.0 | 0.00 | 0.00 | 0.00 | 54 | 1012.0 |
| 20260503022620 | 14 | 325 | 8.0 | 9.7 | 0.00 | 0.00 | 0.00 | 52 | 1012.1 |
| 20260503022115 | 14 | 349 | 4.8 | 8.0 | 0.00 | 0.00 | 0.00 | 52 | 1012.0 |
| 20260503021612 | 15 | 303 | 8.0 | 11.3 | 0.00 | 0.00 | 0.00 | 51 | 1012.1 |
| 20260503021109 | 15 | 313 | 8.0 | 9.7 | 0.00 | 0.00 | 0.00 | 50 | 1011.9 |
| 20260503020606 | 15 | 340 | 8.0 | 11.3 | 0.00 | 0.00 | 0.00 | 49 | 1011.5 |
| 20260503015600 | 15 | 290 | 12.9 | 17.7 | 0.00 | 0.00 | 0.00 | 48 | 1011.9 |
| 20260503015057 | 16 | 340 | 8.0 | 9.7 | 0.00 | 0.00 | 0.00 | 47 | 1011.5 |
| 20260503014552 | 16 | 308 | 11.3 | 12.9 | 0.00 | 0.00 | 0.00 | 47 | 1011.6 |
| 20260503014050 | 16 | 348 | 11.3 | 12.9 | 0.00 | 0.00 | 0.00 | 46 | 1011.5 |
| 20260503013547 | 16 | 308 | 11.3 | 14.5 | 0.00 | 0.00 | 0.00 | 45 | 1011.3 |
| 20260503013045 | 16 | 331 | 12.9 | 16.1 | 0.00 | 0.00 | 0.00 | 45 | 1011.3 |
| 20260503012543 | 16 | 312 | 11.3 | 14.5 | 0.00 | 0.00 | 0.00 | 45 | 1011.2 |
| 20260503012039 | 16 | 318 | 11.3 | 16.1 | 0.00 | 0.00 | 0.00 | 45 | 1011.4 |
| 20260503011535 | 17 | 303 | 12.9 | 20.9 | 0.00 | 0.00 | 0.00 | 44 | 1010.9 |
| 20260503011033 | 17 | 306 | 12.9 | 16.1 | 0.00 | 0.00 | 0.00 | 44 | 1011.1 |
| 20260503010529 | 17 | 326 | 19.3 | 25.7 | 0.00 | 0.00 | 0.00 | 43 | 1011.1 |
| 20260503010027 | 17 | 298 | 14.5 | 16.1 | 0.00 | 0.00 | 0.00 | 42 | 1010.9 |
| 20260503005523 | 17 | 331 | 16.1 | 20.9 | 0.00 | 0.00 | 0.00 | 42 | 1010.8 |
| 20260503005021 | 17 | 325 | 9.7 | 17.7 | 0.00 | 0.00 | 0.00 | 42 | 1010.7 |